Year,Month,Day,Hour,Minute,Value (Times are PST for temperature in C)
2016,07,06,00,00,12.70
2016,07,06,00,01,12.70
2016,07,06,00,02,12.70
2016,07,06,00,03,12.70
2016,07,06,00,04,12.70
2016,07,06,00,05,12.70
2016,07,06,00,06,12.60
2016,07,06,00,07,12.60
2016,07,06,00,08,12.60
2016,07,06,00,09,12.60
2016,07,06,00,10,12.60
2016,07,06,00,11,12.60
2016,07,06,00,12,12.60
2016,07,06,00,13,12.60
2016,07,06,00,14,12.60
2016,07,06,00,15,12.60
2016,07,06,00,16,12.50
2016,07,06,00,17,12.50
2016,07,06,00,18,12.50
2016,07,06,00,19,12.50
2016,07,06,00,20,12.50
2016,07,06,00,21,12.50
2016,07,06,00,22,12.40
2016,07,06,00,23,12.40
2016,07,06,00,24,12.40
2016,07,06,00,25,12.40
2016,07,06,00,26,12.40
2016,07,06,00,27,12.50
2016,07,06,00,28,12.50
2016,07,06,00,29,12.50
2016,07,06,00,30,12.50
2016,07,06,00,31,12.50
2016,07,06,00,32,12.50
2016,07,06,00,33,12.50
2016,07,06,00,34,12.50
2016,07,06,00,35,12.50
2016,07,06,00,36,12.50
2016,07,06,00,37,12.50
2016,07,06,00,38,12.50
2016,07,06,00,39,12.50
2016,07,06,00,40,12.50
2016,07,06,00,41,12.50
2016,07,06,00,42,12.50
2016,07,06,00,43,12.40
2016,07,06,00,44,12.40
2016,07,06,00,45,12.40
2016,07,06,00,46,12.50
2016,07,06,00,47,12.50
2016,07,06,00,48,12.50
2016,07,06,00,49,12.50
2016,07,06,00,50,12.50
2016,07,06,00,51,12.60
2016,07,06,00,52,12.60
2016,07,06,00,53,12.60
2016,07,06,00,54,12.60
2016,07,06,00,55,12.60
2016,07,06,00,56,12.60
2016,07,06,00,57,12.60
2016,07,06,00,58,12.60
2016,07,06,00,59,12.60
2016,07,06,01,00,12.60
2016,07,06,01,01,12.60
2016,07,06,01,02,12.60
2016,07,06,01,03,12.60
2016,07,06,01,04,12.60
2016,07,06,01,05,12.60
2016,07,06,01,06,12.60
2016,07,06,01,07,12.60
2016,07,06,01,08,12.60
2016,07,06,01,09,12.60
2016,07,06,01,10,12.60
2016,07,06,01,11,12.70
2016,07,06,01,12,12.70
2016,07,06,01,13,12.60
2016,07,06,01,14,12.60
2016,07,06,01,15,12.60
2016,07,06,01,16,12.60
2016,07,06,01,17,12.50
2016,07,06,01,18,12.50
2016,07,06,01,19,12.50
2016,07,06,01,20,12.50
2016,07,06,01,21,12.50
2016,07,06,01,22,12.50
2016,07,06,01,23,12.50
2016,07,06,01,24,12.50
2016,07,06,01,25,12.50
2016,07,06,01,26,12.40
2016,07,06,01,27,12.40
2016,07,06,01,28,12.40
2016,07,06,01,29,12.40
2016,07,06,01,30,12.40
2016,07,06,01,31,12.40
2016,07,06,01,32,12.40
2016,07,06,01,33,12.30
2016,07,06,01,34,12.30
2016,07,06,01,35,12.30
2016,07,06,01,36,12.30
2016,07,06,01,37,12.30
2016,07,06,01,38,12.30
2016,07,06,01,39,12.30
2016,07,06,01,40,12.30
2016,07,06,01,41,12.30
2016,07,06,01,42,12.30
2016,07,06,01,43,12.30
2016,07,06,01,44,12.30
2016,07,06,01,45,12.30
2016,07,06,01,46,12.30
2016,07,06,01,47,12.30
2016,07,06,01,48,12.30
2016,07,06,01,49,12.30
2016,07,06,01,50,12.30
2016,07,06,01,51,12.30
2016,07,06,01,52,12.30
2016,07,06,01,53,12.30
2016,07,06,01,54,12.30
2016,07,06,01,55,12.30
2016,07,06,01,56,12.30
2016,07,06,01,57,12.20
2016,07,06,01,58,12.20
2016,07,06,01,59,12.20
2016,07,06,02,00,12.20
2016,07,06,02,01,12.20
2016,07,06,02,02,12.20
2016,07,06,02,03,12.20
2016,07,06,02,04,12.20
2016,07,06,02,05,12.20
2016,07,06,02,06,12.20
2016,07,06,02,07,12.20
2016,07,06,02,08,12.20
2016,07,06,02,09,12.20
2016,07,06,02,10,12.10
2016,07,06,02,11,12.20
2016,07,06,02,12,12.10
2016,07,06,02,13,12.10
2016,07,06,02,14,12.10
2016,07,06,02,15,12.10
2016,07,06,02,16,12.10
2016,07,06,02,17,12.10
2016,07,06,02,18,12.20
2016,07,06,02,19,12.10
2016,07,06,02,20,12.10
2016,07,06,02,21,12.10
2016,07,06,02,22,12.10
2016,07,06,02,23,12.10
2016,07,06,02,24,12.10
2016,07,06,02,25,12.00
2016,07,06,02,26,12.00
2016,07,06,02,27,11.90
2016,07,06,02,28,11.90
2016,07,06,02,29,11.90
2016,07,06,02,30,11.90
2016,07,06,02,31,11.90
2016,07,06,02,32,11.90
2016,07,06,02,33,11.90
2016,07,06,02,34,11.90
2016,07,06,02,35,11.90
2016,07,06,02,36,11.90
2016,07,06,02,37,11.90
2016,07,06,02,38,11.90
2016,07,06,02,39,11.90
2016,07,06,02,40,11.90
2016,07,06,02,41,11.90
2016,07,06,02,42,11.90
2016,07,06,02,43,11.90
2016,07,06,02,44,11.90
2016,07,06,02,45,11.90
2016,07,06,02,46,11.90
2016,07,06,02,47,11.90
2016,07,06,02,48,11.90
2016,07,06,02,49,11.90
2016,07,06,02,50,11.90
2016,07,06,02,51,11.90
2016,07,06,02,52,11.90
2016,07,06,02,53,11.80
2016,07,06,02,54,11.80
2016,07,06,02,55,11.80
2016,07,06,02,56,11.80
2016,07,06,02,57,11.80
2016,07,06,02,58,11.70
2016,07,06,02,59,11.70
2016,07,06,03,00,11.70
2016,07,06,03,01,11.70
2016,07,06,03,02,11.60
2016,07,06,03,03,11.60
2016,07,06,03,04,11.60
2016,07,06,03,05,11.60
2016,07,06,03,06,11.60
2016,07,06,03,07,11.60
2016,07,06,03,08,11.60
2016,07,06,03,09,11.60
2016,07,06,03,10,11.60
2016,07,06,03,11,11.60
2016,07,06,03,12,11.60
2016,07,06,03,13,11.70
2016,07,06,03,14,11.70
2016,07,06,03,15,11.70
2016,07,06,03,16,11.70
2016,07,06,03,17,11.70
2016,07,06,03,18,11.70
2016,07,06,03,19,11.60
2016,07,06,03,20,11.60
2016,07,06,03,21,11.60
2016,07,06,03,22,11.60
2016,07,06,03,23,11.60
2016,07,06,03,24,11.60
2016,07,06,03,25,11.60
2016,07,06,03,26,11.60
2016,07,06,03,27,11.60
2016,07,06,03,28,11.60
2016,07,06,03,29,11.50
2016,07,06,03,30,11.50
2016,07,06,03,31,11.50
2016,07,06,03,32,11.50
2016,07,06,03,33,11.50
2016,07,06,03,34,11.50
2016,07,06,03,35,11.50
2016,07,06,03,36,11.50
2016,07,06,03,37,11.50
2016,07,06,03,38,11.50
2016,07,06,03,39,11.50
2016,07,06,03,40,11.50
2016,07,06,03,41,11.50
2016,07,06,03,42,11.50
2016,07,06,03,43,11.50
2016,07,06,03,44,11.50
2016,07,06,03,45,11.50
2016,07,06,03,46,11.50
2016,07,06,03,47,11.50
2016,07,06,03,48,11.50
2016,07,06,03,49,11.50
2016,07,06,03,50,11.40
2016,07,06,03,51,11.40
2016,07,06,03,52,11.40
2016,07,06,03,53,11.50
2016,07,06,03,54,11.50
2016,07,06,03,55,11.50
2016,07,06,03,56,11.50
2016,07,06,03,57,11.60
2016,07,06,03,58,11.60
2016,07,06,03,59,11.60
2016,07,06,04,00,11.60
2016,07,06,04,01,11.60
2016,07,06,04,02,11.60
2016,07,06,04,03,11.60
2016,07,06,04,04,11.70
2016,07,06,04,05,11.80
2016,07,06,04,06,11.80
2016,07,06,04,07,11.90
2016,07,06,04,08,11.90
2016,07,06,04,09,12.00
2016,07,06,04,10,12.00
2016,07,06,04,11,12.00
2016,07,06,04,12,12.00
2016,07,06,04,13,12.00
2016,07,06,04,14,11.90
2016,07,06,04,15,11.90
2016,07,06,04,16,11.90
2016,07,06,04,17,11.80
2016,07,06,04,18,11.80
2016,07,06,04,19,11.70
2016,07,06,04,20,11.70
2016,07,06,04,21,11.70
2016,07,06,04,22,11.70
2016,07,06,04,23,11.70
2016,07,06,04,24,11.70
2016,07,06,04,25,11.70
2016,07,06,04,26,11.70
2016,07,06,04,27,11.70
2016,07,06,04,28,11.70
2016,07,06,04,29,11.70
2016,07,06,04,30,11.70
2016,07,06,04,31,11.70
2016,07,06,04,32,11.60
2016,07,06,04,33,11.60
2016,07,06,04,34,11.60
2016,07,06,04,35,11.60
2016,07,06,04,36,11.50
2016,07,06,04,37,11.40
2016,07,06,04,38,11.50
2016,07,06,04,39,11.40
2016,07,06,04,40,11.40
2016,07,06,04,41,11.40
2016,07,06,04,42,11.40
2016,07,06,04,43,11.40
2016,07,06,04,44,11.40
2016,07,06,04,45,11.40
2016,07,06,04,46,11.40
2016,07,06,04,47,11.40
2016,07,06,04,48,11.50
2016,07,06,04,49,11.50
2016,07,06,04,50,11.50
2016,07,06,04,51,11.50
2016,07,06,04,52,11.50
2016,07,06,04,53,11.50
2016,07,06,04,54,11.50
2016,07,06,04,55,11.50
2016,07,06,04,56,11.50
2016,07,06,04,57,11.50
2016,07,06,04,58,11.50
2016,07,06,04,59,11.40
2016,07,06,05,00,11.40
2016,07,06,05,01,11.40
2016,07,06,05,02,11.50
2016,07,06,05,03,11.50
2016,07,06,05,04,11.50
2016,07,06,05,05,11.50
2016,07,06,05,06,11.50
2016,07,06,05,07,11.50
2016,07,06,05,08,11.50
2016,07,06,05,09,11.60
2016,07,06,05,10,11.60
2016,07,06,05,11,11.60
2016,07,06,05,12,11.60
2016,07,06,05,13,11.60
2016,07,06,05,14,11.60
2016,07,06,05,15,11.60
2016,07,06,05,16,11.60
2016,07,06,05,17,11.60
2016,07,06,05,18,11.60
2016,07,06,05,19,11.70
2016,07,06,05,20,11.70
2016,07,06,05,21,11.70
2016,07,06,05,22,11.80
2016,07,06,05,23,11.80
2016,07,06,05,24,11.90
2016,07,06,05,25,11.90
2016,07,06,05,26,11.90
2016,07,06,05,27,11.90
2016,07,06,05,28,11.90
2016,07,06,05,29,11.90
2016,07,06,05,30,11.90
2016,07,06,05,31,11.90
2016,07,06,05,32,11.90
2016,07,06,05,33,11.90
2016,07,06,05,34,11.90
2016,07,06,05,35,11.90
2016,07,06,05,36,11.90
2016,07,06,05,37,11.90
2016,07,06,05,38,11.90
2016,07,06,05,39,11.90
2016,07,06,05,40,11.90
2016,07,06,05,41,11.80
2016,07,06,05,42,11.80
2016,07,06,05,43,11.90
2016,07,06,05,44,11.90
2016,07,06,05,45,11.90
2016,07,06,05,46,11.90
2016,07,06,05,47,11.90
2016,07,06,05,48,12.00
2016,07,06,05,49,12.00
2016,07,06,05,50,12.00
2016,07,06,05,51,12.00
2016,07,06,05,52,12.00
2016,07,06,05,53,12.00
2016,07,06,05,54,12.00
2016,07,06,05,55,12.00
2016,07,06,05,56,12.00
2016,07,06,05,57,12.00
2016,07,06,05,58,12.00
2016,07,06,05,59,12.10
2016,07,06,06,00,12.10
2016,07,06,06,01,12.10
2016,07,06,06,02,12.20
2016,07,06,06,03,12.20
2016,07,06,06,04,12.20
2016,07,06,06,05,12.30
2016,07,06,06,06,12.30
2016,07,06,06,07,12.30
2016,07,06,06,08,12.30
2016,07,06,06,09,12.30
2016,07,06,06,10,12.40
2016,07,06,06,11,12.40
2016,07,06,06,12,12.40
2016,07,06,06,13,12.40
2016,07,06,06,14,12.40
2016,07,06,06,15,12.50
2016,07,06,06,16,12.50
2016,07,06,06,17,12.60
2016,07,06,06,18,12.60
2016,07,06,06,19,12.60
2016,07,06,06,20,12.70
2016,07,06,06,21,12.70
2016,07,06,06,22,12.70
2016,07,06,06,23,12.80
2016,07,06,06,24,12.80
2016,07,06,06,25,12.80
2016,07,06,06,26,12.80
2016,07,06,06,27,12.90
2016,07,06,06,28,12.90
2016,07,06,06,29,12.90
2016,07,06,06,30,13.00
2016,07,06,06,31,13.00
2016,07,06,06,32,13.00
2016,07,06,06,33,13.10
2016,07,06,06,34,13.10
2016,07,06,06,35,13.10
2016,07,06,06,36,13.10
2016,07,06,06,37,13.20
2016,07,06,06,38,13.20
2016,07,06,06,39,13.20
2016,07,06,06,40,13.30
2016,07,06,06,41,13.30
2016,07,06,06,42,13.30
2016,07,06,06,43,13.30
2016,07,06,06,44,13.30
2016,07,06,06,45,13.30
2016,07,06,06,46,13.40
2016,07,06,06,47,13.40
2016,07,06,06,48,13.40
2016,07,06,06,49,13.40
2016,07,06,06,50,13.40
2016,07,06,06,51,13.40
2016,07,06,06,52,13.50
2016,07,06,06,53,13.50
2016,07,06,06,54,13.50
2016,07,06,06,55,13.60
2016,07,06,06,56,13.60
2016,07,06,06,57,13.60
2016,07,06,06,58,13.60
2016,07,06,06,59,13.70
2016,07,06,07,00,13.70
2016,07,06,07,01,13.70
2016,07,06,07,02,13.80
2016,07,06,07,03,13.80
2016,07,06,07,04,13.80
2016,07,06,07,05,13.90
2016,07,06,07,06,13.90
2016,07,06,07,07,14.00
2016,07,06,07,08,14.00
2016,07,06,07,09,14.10
2016,07,06,07,10,14.10
2016,07,06,07,11,14.20
2016,07,06,07,12,14.20
2016,07,06,07,13,14.30
2016,07,06,07,14,14.30
2016,07,06,07,15,14.40
2016,07,06,07,16,14.50
2016,07,06,07,17,14.60
2016,07,06,07,18,14.60
2016,07,06,07,19,14.70
2016,07,06,07,20,14.80
2016,07,06,07,21,14.90
2016,07,06,07,22,15.00
2016,07,06,07,23,15.00
2016,07,06,07,24,15.10
2016,07,06,07,25,15.10
2016,07,06,07,26,15.10
2016,07,06,07,27,15.20
2016,07,06,07,28,15.20
2016,07,06,07,29,15.20
2016,07,06,07,30,15.20
2016,07,06,07,31,15.20
2016,07,06,07,32,15.30
2016,07,06,07,33,15.30
2016,07,06,07,34,15.40
2016,07,06,07,35,15.50
2016,07,06,07,36,15.50
2016,07,06,07,37,15.60
2016,07,06,07,38,15.60
2016,07,06,07,39,15.60
2016,07,06,07,40,15.60
2016,07,06,07,41,15.70
2016,07,06,07,42,15.70
2016,07,06,07,43,15.70
2016,07,06,07,44,15.70
2016,07,06,07,45,15.80
2016,07,06,07,46,15.80
2016,07,06,07,47,15.80
2016,07,06,07,48,15.90
2016,07,06,07,49,15.90
2016,07,06,07,50,15.90
2016,07,06,07,51,15.90
2016,07,06,07,52,15.90
2016,07,06,07,53,15.90
2016,07,06,07,54,15.90
2016,07,06,07,55,15.90
2016,07,06,07,56,15.80
2016,07,06,07,57,15.80
2016,07,06,07,58,15.80
2016,07,06,07,59,15.80
2016,07,06,08,00,15.80
2016,07,06,08,01,15.80
2016,07,06,08,02,15.80
2016,07,06,08,03,15.80
2016,07,06,08,04,15.90
2016,07,06,08,05,15.90
2016,07,06,08,06,15.90
2016,07,06,08,07,15.90
2016,07,06,08,08,16.00
2016,07,06,08,09,16.00
2016,07,06,08,10,16.10
2016,07,06,08,11,16.10
2016,07,06,08,12,16.10
2016,07,06,08,13,16.10
2016,07,06,08,14,16.10
2016,07,06,08,15,16.10
2016,07,06,08,16,16.10
2016,07,06,08,17,16.10
2016,07,06,08,18,16.10
2016,07,06,08,19,16.20
2016,07,06,08,20,16.20
2016,07,06,08,21,16.20
2016,07,06,08,22,16.20
2016,07,06,08,23,16.20
2016,07,06,08,24,16.20
2016,07,06,08,25,16.20
2016,07,06,08,26,16.20
2016,07,06,08,27,16.20
2016,07,06,08,28,16.20
2016,07,06,08,29,16.10
2016,07,06,08,30,16.10
2016,07,06,08,31,16.00
2016,07,06,08,32,16.00
2016,07,06,08,33,16.00
2016,07,06,08,34,15.90
2016,07,06,08,35,15.90
2016,07,06,08,36,15.90
2016,07,06,08,37,15.90
2016,07,06,08,38,15.90
2016,07,06,08,39,15.90
2016,07,06,08,40,16.00
2016,07,06,08,41,16.00
2016,07,06,08,42,16.00
2016,07,06,08,43,16.10
2016,07,06,08,44,16.10
2016,07,06,08,45,16.10
2016,07,06,08,46,16.10
2016,07,06,08,47,16.10
2016,07,06,08,48,16.10
2016,07,06,08,49,16.20
2016,07,06,08,50,16.20
2016,07,06,08,51,16.20
2016,07,06,08,52,16.30
2016,07,06,08,53,16.30
2016,07,06,08,54,16.50
2016,07,06,08,55,16.60
2016,07,06,08,56,16.70
2016,07,06,08,57,16.80
2016,07,06,08,58,16.90
2016,07,06,08,59,17.00
2016,07,06,09,00,17.20
2016,07,06,09,01,17.40
2016,07,06,09,02,17.50
2016,07,06,09,03,17.60
2016,07,06,09,04,17.60
2016,07,06,09,05,17.60
2016,07,06,09,06,17.50
2016,07,06,09,07,17.40
2016,07,06,09,08,17.30
2016,07,06,09,09,17.20
2016,07,06,09,10,17.20
2016,07,06,09,11,17.20
2016,07,06,09,12,17.30
2016,07,06,09,13,17.30
2016,07,06,09,14,17.30
2016,07,06,09,15,17.20
2016,07,06,09,16,17.20
2016,07,06,09,17,17.30
2016,07,06,09,18,17.30
2016,07,06,09,19,17.30
2016,07,06,09,20,17.40
2016,07,06,09,21,17.40
2016,07,06,09,22,17.50
2016,07,06,09,23,17.60
2016,07,06,09,24,17.60
2016,07,06,09,25,17.70
2016,07,06,09,26,17.80
2016,07,06,09,27,17.90
2016,07,06,09,28,17.90
2016,07,06,09,29,17.90
2016,07,06,09,30,18.00
2016,07,06,09,31,18.00
2016,07,06,09,32,18.00
2016,07,06,09,33,18.10
2016,07,06,09,34,18.10
2016,07,06,09,35,18.10
2016,07,06,09,36,18.10
2016,07,06,09,37,18.20
2016,07,06,09,38,18.20
2016,07,06,09,39,18.20
2016,07,06,09,40,18.20
2016,07,06,09,41,18.20
2016,07,06,09,42,18.20
2016,07,06,09,43,18.20
2016,07,06,09,44,18.20
2016,07,06,09,45,18.20
2016,07,06,09,46,18.20
2016,07,06,09,47,18.10
2016,07,06,09,48,18.10
2016,07,06,09,49,18.10
2016,07,06,09,50,18.00
2016,07,06,09,51,18.00
2016,07,06,09,52,18.00
2016,07,06,09,53,18.00
2016,07,06,09,54,18.00
2016,07,06,09,55,18.00
2016,07,06,09,56,18.00
2016,07,06,09,57,18.00
2016,07,06,09,58,17.90
2016,07,06,09,59,17.90
2016,07,06,10,00,17.90
2016,07,06,10,01,17.90
2016,07,06,10,02,17.90
2016,07,06,10,03,17.80
2016,07,06,10,04,17.80
2016,07,06,10,05,17.70
2016,07,06,10,06,17.70
2016,07,06,10,07,17.70
2016,07,06,10,08,17.70
2016,07,06,10,09,17.80
2016,07,06,10,10,17.80
2016,07,06,10,11,17.80
2016,07,06,10,12,17.80
2016,07,06,10,13,17.90
2016,07,06,10,14,17.90
2016,07,06,10,15,18.00
2016,07,06,10,16,18.10
2016,07,06,10,17,18.20
2016,07,06,10,18,18.30
2016,07,06,10,19,18.40
2016,07,06,10,20,18.50
2016,07,06,10,21,18.70
2016,07,06,10,22,18.80
2016,07,06,10,23,18.80
2016,07,06,10,24,18.90
2016,07,06,10,25,19.00
2016,07,06,10,26,19.10
2016,07,06,10,27,19.20
2016,07,06,10,28,19.20
2016,07,06,10,29,19.20
2016,07,06,10,30,19.30
2016,07,06,10,31,19.30
2016,07,06,10,32,19.30
2016,07,06,10,33,19.30
2016,07,06,10,34,19.30
2016,07,06,10,35,19.30
2016,07,06,10,36,19.30
2016,07,06,10,37,19.20
2016,07,06,10,38,19.20
2016,07,06,10,39,19.30
2016,07,06,10,40,19.30
2016,07,06,10,41,19.30
2016,07,06,10,42,19.30
2016,07,06,10,43,19.20
2016,07,06,10,44,19.10
2016,07,06,10,45,19.10
2016,07,06,10,46,19.00
2016,07,06,10,47,18.90
2016,07,06,10,48,18.90
2016,07,06,10,49,18.90
2016,07,06,10,50,18.80
2016,07,06,10,51,18.70
2016,07,06,10,52,18.60
2016,07,06,10,53,18.50
2016,07,06,10,54,18.50
2016,07,06,10,55,18.50
2016,07,06,10,56,18.60
2016,07,06,10,57,18.70
2016,07,06,10,58,18.70
2016,07,06,10,59,18.70
2016,07,06,11,00,18.70
2016,07,06,11,01,18.70
2016,07,06,11,02,18.70
2016,07,06,11,03,18.60
2016,07,06,11,04,18.70
2016,07,06,11,05,18.70
2016,07,06,11,06,18.70
2016,07,06,11,07,18.70
2016,07,06,11,08,18.70
2016,07,06,11,09,18.70
2016,07,06,11,10,18.70
2016,07,06,11,11,18.80
2016,07,06,11,12,18.80
2016,07,06,11,13,18.80
2016,07,06,11,14,18.80
2016,07,06,11,15,18.70
2016,07,06,11,16,18.70
2016,07,06,11,17,18.70
2016,07,06,11,18,18.70
2016,07,06,11,19,18.70
2016,07,06,11,20,18.70
2016,07,06,11,21,18.70
2016,07,06,11,22,18.60
2016,07,06,11,23,18.70
2016,07,06,11,24,18.70
2016,07,06,11,25,18.70
2016,07,06,11,26,18.80
2016,07,06,11,27,18.80
2016,07,06,11,28,18.80
2016,07,06,11,29,18.80
2016,07,06,11,30,18.80
2016,07,06,11,31,18.80
2016,07,06,11,32,18.90
2016,07,06,11,33,19.00
2016,07,06,11,34,19.10
2016,07,06,11,35,19.00
2016,07,06,11,36,19.00
2016,07,06,11,37,19.00
2016,07,06,11,38,19.00
2016,07,06,11,39,19.00
2016,07,06,11,40,19.10
2016,07,06,11,41,19.10
2016,07,06,11,42,19.10
2016,07,06,11,43,19.10
2016,07,06,11,44,19.20
2016,07,06,11,45,19.10
2016,07,06,11,46,19.00
2016,07,06,11,47,18.90
2016,07,06,11,48,18.90
2016,07,06,11,49,18.80
2016,07,06,11,50,18.70
2016,07,06,11,51,18.70
2016,07,06,11,52,18.80
2016,07,06,11,53,18.80
2016,07,06,11,54,18.90
2016,07,06,11,55,19.00
2016,07,06,11,56,19.10
2016,07,06,11,57,19.20
2016,07,06,11,58,19.30
2016,07,06,11,59,19.30
2016,07,06,12,00,19.30
2016,07,06,12,01,19.40
2016,07,06,12,02,19.40
2016,07,06,12,03,19.40
2016,07,06,12,04,19.30
2016,07,06,12,05,19.30
2016,07,06,12,06,19.30
2016,07,06,12,07,19.30
2016,07,06,12,08,19.20
2016,07,06,12,09,19.10
2016,07,06,12,10,19.00
2016,07,06,12,11,18.90
2016,07,06,12,12,18.80
2016,07,06,12,13,18.70
2016,07,06,12,14,18.70
2016,07,06,12,15,18.70
2016,07,06,12,16,18.70
2016,07,06,12,17,18.70
2016,07,06,12,18,18.70
2016,07,06,12,19,18.80
2016,07,06,12,20,18.80
2016,07,06,12,21,18.80
2016,07,06,12,22,18.90
2016,07,06,12,23,18.90
2016,07,06,12,24,19.00
2016,07,06,12,25,19.00
2016,07,06,12,26,19.00
2016,07,06,12,27,18.90
2016,07,06,12,28,18.80
2016,07,06,12,29,18.80
2016,07,06,12,30,18.70
2016,07,06,12,31,18.80
2016,07,06,12,32,18.80
2016,07,06,12,33,18.80
2016,07,06,12,34,18.80
2016,07,06,12,35,18.90
2016,07,06,12,36,19.00
2016,07,06,12,37,19.10
2016,07,06,12,38,19.20
2016,07,06,12,39,19.20
2016,07,06,12,40,19.20
2016,07,06,12,41,19.30
2016,07,06,12,42,19.30
2016,07,06,12,43,19.40
2016,07,06,12,44,19.50
2016,07,06,12,45,19.50
2016,07,06,12,46,19.60
2016,07,06,12,47,19.60
2016,07,06,12,48,19.70
2016,07,06,12,49,19.80
2016,07,06,12,50,19.90
2016,07,06,12,51,19.90
2016,07,06,12,52,19.90
2016,07,06,12,53,19.90
2016,07,06,12,54,19.90
2016,07,06,12,55,19.90
2016,07,06,12,56,19.90
2016,07,06,12,57,19.80
2016,07,06,12,58,19.80
2016,07,06,12,59,19.80
2016,07,06,13,00,19.80
2016,07,06,13,01,19.80
2016,07,06,13,02,19.80
2016,07,06,13,03,19.90
2016,07,06,13,04,19.90
2016,07,06,13,05,19.90
2016,07,06,13,06,19.90
2016,07,06,13,07,19.90
2016,07,06,13,08,19.80
2016,07,06,13,09,19.80
2016,07,06,13,10,19.70
2016,07,06,13,11,19.60
2016,07,06,13,12,19.50
2016,07,06,13,13,19.50
2016,07,06,13,14,19.40
2016,07,06,13,15,19.40
2016,07,06,13,16,19.30
2016,07,06,13,17,19.30
2016,07,06,13,18,19.30
2016,07,06,13,19,19.30
2016,07,06,13,20,19.20
2016,07,06,13,21,19.20
2016,07,06,13,22,19.20
2016,07,06,13,23,19.10
2016,07,06,13,24,19.10
2016,07,06,13,25,19.20
2016,07,06,13,26,19.20
2016,07,06,13,27,19.30
2016,07,06,13,28,19.30
2016,07,06,13,29,19.30
2016,07,06,13,30,19.30
2016,07,06,13,31,19.30
2016,07,06,13,32,19.40
2016,07,06,13,33,19.40
2016,07,06,13,34,19.40
2016,07,06,13,35,19.40
2016,07,06,13,36,19.40
2016,07,06,13,37,19.40
2016,07,06,13,38,19.30
2016,07,06,13,39,19.30
2016,07,06,13,40,19.30
2016,07,06,13,41,19.30
2016,07,06,13,42,19.30
2016,07,06,13,43,19.30
2016,07,06,13,44,19.40
2016,07,06,13,45,19.40
2016,07,06,13,46,19.50
2016,07,06,13,47,19.60
2016,07,06,13,48,19.70
2016,07,06,13,49,19.70
2016,07,06,13,50,19.60
2016,07,06,13,51,19.60
2016,07,06,13,52,19.60
2016,07,06,13,53,19.60
2016,07,06,13,54,19.60
2016,07,06,13,55,19.70
2016,07,06,13,56,19.70
2016,07,06,13,57,19.70
2016,07,06,13,58,19.60
2016,07,06,13,59,19.60
2016,07,06,14,00,19.60
2016,07,06,14,01,19.60
2016,07,06,14,02,19.70
2016,07,06,14,03,19.80
2016,07,06,14,04,19.90
2016,07,06,14,05,20.00
2016,07,06,14,06,20.10
2016,07,06,14,07,20.20
2016,07,06,14,08,20.20
2016,07,06,14,09,20.10
2016,07,06,14,10,20.10
2016,07,06,14,11,20.10
2016,07,06,14,12,20.10
2016,07,06,14,13,20.10
2016,07,06,14,14,20.10
2016,07,06,14,15,20.20
2016,07,06,14,16,20.20
2016,07,06,14,17,20.20
2016,07,06,14,18,20.30
2016,07,06,14,19,20.20
2016,07,06,14,20,20.20
2016,07,06,14,21,20.10
2016,07,06,14,22,20.00
2016,07,06,14,23,19.90
2016,07,06,14,24,19.90
2016,07,06,14,25,19.90
2016,07,06,14,26,19.90
2016,07,06,14,27,19.80
2016,07,06,14,28,19.80
2016,07,06,14,29,19.80
2016,07,06,14,30,19.80
2016,07,06,14,31,19.70
2016,07,06,14,32,19.70
2016,07,06,14,33,19.70
2016,07,06,14,34,19.70
2016,07,06,14,35,19.60
2016,07,06,14,36,19.60
2016,07,06,14,37,19.60
2016,07,06,14,38,19.60
2016,07,06,14,39,19.60
2016,07,06,14,40,19.60
2016,07,06,14,41,19.70
2016,07,06,14,42,19.70
2016,07,06,14,43,19.80
2016,07,06,14,44,19.80
2016,07,06,14,45,19.80
2016,07,06,14,46,19.80
2016,07,06,14,47,19.80
2016,07,06,14,48,19.80
2016,07,06,14,49,19.80
2016,07,06,14,50,19.80
2016,07,06,14,51,19.90
2016,07,06,14,52,19.90
2016,07,06,14,53,20.00
2016,07,06,14,54,20.10
2016,07,06,14,55,20.20
2016,07,06,14,56,20.30
2016,07,06,14,57,20.50
2016,07,06,14,58,20.50
2016,07,06,14,59,20.60
2016,07,06,15,00,20.60
2016,07,06,15,01,20.70
2016,07,06,15,02,20.70
2016,07,06,15,03,20.70
2016,07,06,15,04,20.70
2016,07,06,15,05,20.70
2016,07,06,15,06,20.60
2016,07,06,15,07,20.60
2016,07,06,15,08,20.60
2016,07,06,15,09,20.60
2016,07,06,15,10,20.60
2016,07,06,15,11,20.70
2016,07,06,15,12,20.70
2016,07,06,15,13,20.80
2016,07,06,15,14,20.90
2016,07,06,15,15,21.00
2016,07,06,15,16,20.90
2016,07,06,15,17,20.90
2016,07,06,15,18,20.90
2016,07,06,15,19,20.90
2016,07,06,15,20,20.80
2016,07,06,15,21,20.80
2016,07,06,15,22,20.80
2016,07,06,15,23,20.90
2016,07,06,15,24,21.00
2016,07,06,15,25,21.10
2016,07,06,15,26,21.00
2016,07,06,15,27,21.00
2016,07,06,15,28,21.10
2016,07,06,15,29,21.10
2016,07,06,15,30,21.20
2016,07,06,15,31,21.20
2016,07,06,15,32,21.20
2016,07,06,15,33,21.10
2016,07,06,15,34,21.00
2016,07,06,15,35,20.90
2016,07,06,15,36,20.80
2016,07,06,15,37,20.80
2016,07,06,15,38,20.70
2016,07,06,15,39,20.70
2016,07,06,15,40,20.70
2016,07,06,15,41,20.80
2016,07,06,15,42,20.80
2016,07,06,15,43,20.90
2016,07,06,15,44,20.90
2016,07,06,15,45,20.90
2016,07,06,15,46,20.80
2016,07,06,15,47,20.80
2016,07,06,15,48,20.80
2016,07,06,15,49,20.70
2016,07,06,15,50,20.70
2016,07,06,15,51,20.60
2016,07,06,15,52,20.60
2016,07,06,15,53,20.60
2016,07,06,15,54,20.50
2016,07,06,15,55,20.40
2016,07,06,15,56,20.40
2016,07,06,15,57,20.40
2016,07,06,15,58,20.30
2016,07,06,15,59,20.30
2016,07,06,16,00,20.20
2016,07,06,16,01,20.20
2016,07,06,16,02,20.20
2016,07,06,16,03,20.20
2016,07,06,16,04,20.20
2016,07,06,16,05,20.20
2016,07,06,16,06,20.20
2016,07,06,16,07,20.20
2016,07,06,16,08,20.20
2016,07,06,16,09,20.20
2016,07,06,16,10,20.20
2016,07,06,16,11,20.20
2016,07,06,16,12,20.20
2016,07,06,16,13,20.20
2016,07,06,16,14,20.20
2016,07,06,16,15,20.20
2016,07,06,16,16,20.20
2016,07,06,16,17,20.20
2016,07,06,16,18,20.20
2016,07,06,16,19,20.10
2016,07,06,16,20,20.10
2016,07,06,16,21,20.20
2016,07,06,16,22,20.20
2016,07,06,16,23,20.20
2016,07,06,16,24,20.20
2016,07,06,16,25,20.20
2016,07,06,16,26,20.20
2016,07,06,16,27,20.20
2016,07,06,16,28,20.20
2016,07,06,16,29,20.20
2016,07,06,16,30,20.20
2016,07,06,16,31,20.20
2016,07,06,16,32,20.20
2016,07,06,16,33,20.20
2016,07,06,16,34,20.20
2016,07,06,16,35,20.20
2016,07,06,16,36,20.20
2016,07,06,16,37,20.20
2016,07,06,16,38,20.30
2016,07,06,16,39,20.30
2016,07,06,16,40,20.30
2016,07,06,16,41,20.40
2016,07,06,16,42,20.40
2016,07,06,16,43,20.40
2016,07,06,16,44,20.30
2016,07,06,16,45,20.30
2016,07,06,16,46,20.30
2016,07,06,16,47,20.30
2016,07,06,16,48,20.30
2016,07,06,16,49,20.30
2016,07,06,16,50,20.30
2016,07,06,16,51,20.30
2016,07,06,16,52,20.30
2016,07,06,16,53,20.30
2016,07,06,16,54,20.30
2016,07,06,16,55,20.30
2016,07,06,16,56,20.30
2016,07,06,16,57,20.30
2016,07,06,16,58,20.40
2016,07,06,16,59,20.40
2016,07,06,17,00,20.40
2016,07,06,17,01,20.40
2016,07,06,17,02,20.40
2016,07,06,17,03,20.40
2016,07,06,17,04,20.40
2016,07,06,17,05,20.40
2016,07,06,17,06,20.30
2016,07,06,17,07,20.30
2016,07,06,17,08,20.20
2016,07,06,17,09,20.10
2016,07,06,17,10,20.10
2016,07,06,17,11,20.10
2016,07,06,17,12,20.00
2016,07,06,17,13,20.00
2016,07,06,17,14,20.00
2016,07,06,17,15,20.00
2016,07,06,17,16,20.00
2016,07,06,17,17,20.10
2016,07,06,17,18,20.10
2016,07,06,17,19,20.10